#timestamp,LO_Frequency,Hit,StdDev 
1552309215.1,286047002.5,N
1552309216.0,286047002.5,N
1552309235.8,286047002.4,N
1552309255.6,286046998.1,N
1552309275.5,286047000.3,N
1552309295.3,286047002.7,N
1552309315.1,286047001.9,N
1552309335.9,286047004.0,N
1552309355.7,286047003.0,N
1552309375.6,286047005.1,N
1552309395.4,286047006.2,N
1552309415.2,286047008.8,N
1552309435.1,286047006.6,N
1552309436.0,286047006.6,N
1552309455.8,286047007.0,N
1552309475.7,286047007.6,N
1552309495.5,286047004.8,N
1552309515.3,286047004.6,N
1552309535.2,286047005.3,N
1552309555.9,286047005.3,N
1552309575.7,286047006.0,N
1552309595.6,286047004.2,N
1552309615.4,286046999.9,N
1552309635.3,286046998.2,N
1552309655.1,286046998.3,N
1552309656.0,286046998.3,N
1552309675.8,286046997.0,N
1552309695.7,286046996.9,N
1552309715.5,286046997.9,N
1552309735.3,286046995.0,N
1552309755.2,286046995.6,N
1552309775.0,286046995.0,N
1552309775.9,286046995.0,N
1552309795.8,286046995.3,N
1552309815.6,286046996.3,N
1552309835.4,286046993.8,N
1552309855.3,286046994.0,N
1552309875.1,286046994.4,N
1552309895.9,286046994.9,N
1552309915.7,286046997.3,N
1552309935.5,286046998.9,N
1552309955.4,286046998.5,N
1552309975.2,286046999.8,N
1552309995.0,286046999.7,N
1552309995.9,286046999.7,N
1552310015.8,286047003.9,N
1552310035.6,286047005.7,N
1552310055.5,286047004.6,N
1552310075.3,286047006.2,N
1552310095.1,286047007.9,N
1552310115.9,286047009.4,N
1552310135.7,286047011.8,N
1552310155.5,286047011.3,N
1552310175.4,286047013.9,N
1552310195.2,286047011.4,N
1552310215.1,286047015.0,N
1552310216.0,286047015.0,N
1552310235.8,286047013.6,N
1552310255.6,286047015.1,N
1552310275.5,286047012.8,N
1552310295.3,286047014.8,N
1552310315.2,286047014.6,N
1552310335.9,286047016.3,N
1552310355.7,286047019.4,N
1552310375.6,286047019.4,N
1552310395.4,286047020.6,N
1552310415.2,286047023.5,N
1552310435.1,286047018.9,N
1552310436.0,286047018.9,N
1552310455.8,286047019.6,N
1552310475.7,286047019.1,N
1552310495.5,286047019.0,N
1552310515.3,286047019.1,N
1552310535.2,286047019.8,Y
1552310555.0,286047007.2,P
1552310555.9,286047007.2,N
1552310575.8,286047007.2,N
1552310595.6,286047006.7,N
1552310615.4,286047006.1,N
1552310635.3,286047009.9,Y
1552310655.1,286047004.2,P
1552310675.9,286047003.2,N
1552310695.7,286047004.6,N
1552310715.5,286047006.7,Y
1552310735.4,286047001.0,P
1552310755.2,286047000.8,N
1552310775.1,286046999.8,N
1552310776.0,286046999.8,N
1552310795.8,286047000.7,N
1552310815.6,286046999.0,N
1552310835.5,286046996.9,N
1552310855.3,286047001.0,N
1552310875.1,286046998.2,N
1552310895.9,286046998.6,N
1552310915.7,286046999.1,N
1552310935.6,286046998.3,N
1552310955.4,286046998.9,N
1552310975.2,286046998.6,N
1552310995.1,286047000.9,N
1552310996.0,286047000.9,N
1552311015.8,286047000.5,N
1552311035.6,286047000.6,N
1552311055.5,286047000.7,N
1552311075.3,286047000.0,N
1552311095.2,286047000.6,N
1552311115.9,286047002.5,N
1552311135.7,286047000.9,N
1552311155.6,286047004.3,N
1552311175.4,286047002.0,N
1552311195.3,286047001.9,N
1552311215.1,286047003.7,N
1552311216.0,286047003.7,N
1552311235.8,286047004.9,N
1552311255.7,286047009.2,Y
1552311275.5,286047004.6,P
1552311295.3,286047003.0,N
1552311315.2,286047003.9,N
1552311335.0,286047003.9,N
1552311335.9,286047003.9,N
1552311355.8,286047001.3,N
1552311375.6,286047002.8,N
1552311395.4,286046999.1,N
1552311415.3,286046995.4,N
1552311435.1,286046995.9,N
1552311455.9,286046994.7,N
1552311475.7,286046990.3,N
1552311495.5,286046989.6,N
1552311515.4,286046988.1,N
1552311535.2,286046986.8,N
1552311555.0,286046985.1,N
1552311555.9,286046985.1,N
1552311575.8,286046982.6,N
1552311595.6,286046979.0,N
1552311615.5,286046981.9,N
1552311635.3,286046980.0,N
1552311655.1,286046978.8,N
1552311675.9,286046975.8,N
1552311695.7,286046977.2,N
1552311715.5,286046974.3,N
1552311735.4,286046974.4,N
1552311755.2,286046972.9,N
1552311775.0,286046973.7,N
1552311776.0,286046973.7,N
1552311795.8,286046971.0,N
1552311815.6,286046971.8,N
1552311835.5,286046971.7,N
1552311855.3,286046974.4,N
1552311875.1,286046977.5,N
1552311895.9,286046978.1,N
1552311915.7,286046979.8,N
1552311935.6,286046980.0,N
1552311955.4,286046979.5,N
1552311975.2,286046980.7,N
1552311995.1,286046982.4,N
1552311996.0,286046982.4,N
1552312015.8,286046986.4,N
1552312035.6,286046987.9,N
1552312055.5,286046985.8,N
1552312075.3,286046986.1,N
1552312095.2,286046988.1,N
1552312115.9,286046985.5,N
1552312135.7,286046987.6,N
1552312155.6,286046989.6,N
1552312175.4,286046989.1,N
1552312195.2,286046988.9,N
1552312215.1,286046990.9,N
1552312216.0,286046990.9,N
1552312235.8,286046992.9,N
1552312255.7,286046992.0,N
1552312275.5,286046992.4,N
1552312295.3,286046994.8,N
1552312315.2,286046996.0,N
1552312335.0,286046996.2,N
1552312335.9,286046996.2,N
1552312355.7,286046991.8,N
1552312375.6,286046992.7,N
1552312395.4,286046990.9,N
1552312415.3,286046994.1,N
1552312435.1,286046994.4,N
1552312455.8,286046993.8,N
1552312475.7,286046995.6,N
1552312495.5,286046994.2,N
1552312515.4,286046993.5,N
1552312535.2,286046993.6,N
1552312555.0,286046993.9,N
1552312555.9,286046993.9,N
1552312575.8,286046994.7,N
1552312595.6,286046993.8,N
1552312615.4,286046994.5,N
1552312635.3,286046994.7,N
1552312655.1,286046992.7,N
1552312675.9,286046991.3,Y
1552312695.7,286046997.5,P
1552312715.5,286046993.3,N
1552312735.4,286046994.0,N
1552312755.2,286046995.0,N
1552312775.0,286046996.7,N
1552312775.9,286046996.7,N
1552312795.8,286047001.1,N
